Weather History for EGWU - August, 2013

Change the Weather History Date:

Thursday, August 1, 2013

  Actual Average Record
Temperature  
Mean Temperature 76 °F -  
Max Temperature 91 °F 71 °F - (-1)
Min Temperature 61 °F 55 °F - (-1)
Cooling Degree Days 11    
Growing Degree Days 26 (Base 50)    
Moisture  
Dew Point 61 °F    
Average Humidity 60    
Maximum Humidity 94    
Minimum Humidity 25    
Precipitation  
Precipitation 0.00 in - - ()
Sea Level Pressure  
Sea Level Pressure 29.80 in    
Wind  
Wind Speed 7 mph ()    
Max Wind Speed 15 mph    
Max Gust Speed -    
Visibility 10.1 miles    
Events      
Averages and records for this station are not official NWS values.
T = Trace of Precipitation, MM = Missing Value Source: Averaged Metar Reports

Daily Weather History Graph

Daily Weather History Graph

Search for Another Location

Airport or City:

Trip Planner

Search our weather history database for the weather conditions in past years. The results will help you decide how hot, cold, wet, or windy it might be!

Date:

Astronomy

Aug. 01, 2013 Rise Set
Actual Time 5:25 AM BST 8:49 PM BST
Civil Twilight 4:44 AM BST 9:30 PM BST
Nautical Twilight 3:49 AM BST 10:24 PM BST
Astronomical Twilight 2:33 AM BST 11:39 PM BST
Moon 12:48 AM BST (8/1) 4:50 PM BST (8/1)
Length of Visible Light 16h 45m
Length of Day
15h 24m
Waning Crescent, 25% of the Moon is Illuminated
Aug 1
Waning Crescent
Aug 6
New
Aug 14
First Quarter
Aug 21
Full
Aug 28
Last Quarter

Hourly Weather History & Observations

Time (BST) Temp. Heat Index Dew Point Humidity Pressure Visibility Wind Dir Wind Speed Gust Speed Precip Events Conditions
12:50 AM 67 °F - 61 °F 77% 29.94 in 28 mi SSW 6.9 mph - -   Scattered Clouds
12:50 AM 66.2 °F - 60.8 °F 83% 29.92 in 6.2 mi SSW 6.9 mph - N/A   Mostly Cloudy
1:50 AM 66.2 °F - 60.8 °F 83% 29.92 in 6.2 mi SSW 5.8 mph - N/A   Scattered Clouds
2:50 AM 64.4 °F - 60.8 °F 88% 29.92 in 6.2 mi South 5.8 mph - N/A   Partly Cloudy
3:50 AM 64 °F - 61 °F 86% 29.91 in 19 mi South 3.5 mph - -   Partly Cloudy
3:50 AM 64.4 °F - 60.8 °F 88% 29.89 in 6.2 mi South 3.5 mph - N/A   Scattered Clouds
4:50 AM 62.6 °F - 60.8 °F 94% 29.89 in 6.2 mi South 2.3 mph - N/A   Unknown
5:50 AM 60.8 °F - 59.0 °F 94% 29.89 in 6.2 mi ESE 3.5 mph - N/A   Unknown
6:50 AM 64 °F - 60 °F 84% 29.88 in 14 mi SE 4.6 mph - -  
6:54 AM 64.4 °F - 60.8 °F 88% 29.86 in 6.2 mi SE 5.8 mph - N/A   Partly Cloudy
7:50 AM 68.0 °F - 60.8 °F 78% 29.86 in - SE 8.1 mph - N/A   Clear
8:50 AM 71.6 °F - 62.6 °F 73% 29.86 in - SE 8.1 mph - N/A   Clear
9:50 AM 78 °F - 64 °F 54% 29.84 in 19 mi SE 10.4 mph - -   Clear
9:50 AM 78.8 °F - 64.4 °F 61% 29.83 in - SE 10.4 mph - N/A   Clear
10:50 AM 82.4 °F 84.6 °F 66.2 °F 58% 29.80 in - SE 12.7 mph - N/A   Clear
11:50 AM 84.2 °F 85.6 °F 64.4 °F 51% 29.80 in - SSE 12.7 mph - N/A   Clear
12:50 PM 86 °F - 62 °F 35% 29.78 in 19 mi South 15.0 mph - -   Scattered Clouds
12:50 PM 86.0 °F 86.6 °F 62.6 °F 45% 29.77 in - South 15.0 mph - N/A   Clear
1:50 PM 89.6 °F 90.1 °F 62.6 °F 40% 29.74 in - South 12.7 mph - N/A   Clear
2:50 PM 89.6 °F 88.9 °F 59.0 °F 36% 29.74 in - South 15.0 mph - N/A   Clear
3:50 PM 90 °F - 58 °F 25% 29.73 in 22 mi South 13.8 mph - -   Partly Cloudy
3:50 PM 89.6 °F 88.9 °F 59.0 °F 36% 29.71 in - South 13.8 mph - N/A   Clear
4:50 PM 89.6 °F 88.1 °F 57.2 °F 33% 29.71 in - South 15.0 mph - N/A   Clear
5:50 PM 89.6 °F 90.1 °F 62.6 °F 40% 29.68 in - South 12.7 mph - N/A   Clear
6:50 PM 89 °F - 63 °F 32% 29.69 in 25 mi SSE 13.8 mph - -   Partly Cloudy
6:50 PM 89.6 °F 90.1 °F 62.6 °F 40% 29.68 in - SSE 13.8 mph - N/A   Clear
7:50 PM 86.0 °F 86.6 °F 62.6 °F 45% 29.68 in - South 12.7 mph - N/A   Clear
8:50 PM 82.4 °F 82.9 °F 60.8 °F 48% 29.68 in - SSW 6.9 mph - N/A   Clear
9:50 PM 80 °F - 62 °F 44% 29.72 in 22 mi South 5.8 mph - -  
9:50 PM 80.6 °F 81.8 °F 62.6 °F 54% 29.71 in - South 5.8 mph - N/A   Clear
10:50 PM 77.0 °F - 62.6 °F 61% 29.74 in - SW 10.4 mph - N/A   Clear
11:50 PM 75.2 °F - 59.0 °F 57% 29.74 in 6.2 mi SSW 8.1 mph - N/A   Unknown